User: anonymous   Login
Location: Unspecified
(0.0000°N, 0.0000°E)
Time: 23:36:05
(UTC+00:00)
Language:

IGS 8A - Orbit

View from above orbital plane
View from above orbital plane
View from above satellite
View from above satellite

Ground track
Ground track

The orbit data is extracted from the following two-line orbital elements,

1 39061U 13002A   18135.99804926 0.00000000  00000-0  00000-0 0    03
2 39061  97.4437 255.8106 0002769   8.7556 351.2442 15.17641424    03
Epoch (UTC): 15 May 2018 23:57:11
Eccentricity: 0.0002769
inclination: 97.4437°
perigee height: 511 km
apogee height: 515 km
right ascension of ascending node: 255.8106°
argument of perigee: 8.7556°
revolutions per day: 15.17641424
mean anomaly at epoch: 351.2442°
orbit number at epoch: 0

The dashed part of the orbit path shows where the satellite is in the earth's shadow,  

DLR